Simultaneous Nadir Overpasses (SNOs) Predictions

Prediction of SNOs between LANDSAT-8 and NPP Satellite Orbit:

Table of predicted SNOs for the next 14.0 days since TLE Epoch: 11/5/2016
Index Date (LANDSAT-8) Time (LANDSAT-8) Lat,Lon (LANDSAT-8) SZA (LANDSAT-8 ) Date (NPP) Time (NPP) Lat,Lon (NPP) SZA (NPP ) Distance(km) Time Diff (sec)
1 11/05/2016 22:25:45 70.15,-159.85 86.07 11/05/2016 22:24:38 70.17,-159.81 86.08 2.35 67
2 11/05/2016 23:15:14 -70.09, 7.70 93.99 11/05/2016 23:15:20 -70.08, 7.65 94.00 2.25 6
3 11/06/2016 00:04:47 69.66, 174.74 85.59 11/06/2016 00:05:58 69.64, 175.61 85.58 33.44 71
4 11/08/2016 14:42:14 70.13, -44.00 86.83 11/08/2016 14:41:33 70.15, -44.02 86.85 2.56 41
5 11/08/2016 15:31:44 -70.02, 123.47 93.28 11/08/2016 15:32:14 -70.01, 123.52 93.29 2.21 30
6 11/11/2016 06:09:05 -70.81, -94.76 91.75 11/11/2016 06:07:56 -70.88, -96.71 91.69 71.72 69
7 11/11/2016 06:58:42 70.10, 71.84 87.55 11/11/2016 06:58:26 70.09, 71.85 87.54 1.53 16
8 11/11/2016 07:48:12 -69.99,-120.68 92.56 11/11/2016 07:49:08 -69.99,-120.68 92.56 0.26 56
9 11/13/2016 22:25:44 -70.18, 20.18 91.68 11/13/2016 22:24:37 -70.18, 20.16 91.67 1.17 67
10 11/13/2016 23:15:11 70.07,-172.33 88.23 11/13/2016 23:15:21 70.08,-172.37 88.24 2.35 10
11 11/14/2016 00:04:46 -69.69, -5.22 92.15 11/14/2016 00:05:57 -69.66, -4.43 92.17 30.83 71
12 11/16/2016 14:42:13 -70.14, 136.01 91.04 11/16/2016 14:41:31 -70.12, 136.02 91.06 1.82 42
13 11/16/2016 15:31:40 70.02, -56.50
